Regional Weather Roundup
Issued by NWS

Home | Current Version | Previous Version | Text Only | Print | Product List | Glossary Off
Versions: 1 2 3 4 5 6 7 8 9 10 11 12 13 14 15 16 17 18 19 20 21 22 23 24 25 26 27 28 29 30 31 32 33 34 35 36 37 38 39 40 41 42 43 44 45 46 47 48 49 50

634
ASUS43 KBIS 240402
RWRND

NORTH DAKOTA REGIONAL WEATHER ROUNDUP
NATIONAL WEATHER SERVICE BISMARCK ND
1100 PM CDT SUN APR 23 2017

NOTE: "FAIR" INDICATES FEW OR NO CLOUDS BELOW 12,000 FEET WITH NO
SIGNIFICANT WEATHER AND/OR OBSTRUCTIONS TO VISIBILITY.


NDZ001>003-009>011-017-240500-
NORTHWEST NORTH DAKOTA

CITY           SKY/WX    TMP DP  RH WIND       PRES   REMARKS
WILLISTON      CLOUDY    31  27  85 E14       29.84F
MINOT          CLOUDY    31  27  85 E15       29.91R
MINOT AFB      CLOUDY    31  27  86 SE13      29.91R
$$

NDZ018>021-031>035-040>046-240500-
SOUTHWEST NORTH DAKOTA

CITY           SKY/WX    TMP DP  RH WIND       PRES   REMARKS
BISMARCK       CLOUDY    33  31  92 E15G23    29.83F
DICKINSON      FOG       30  29  96 E20       29.72F VSB 1/4 WCI  17
GARRISON         N/A     28  27  96 E21       29.83F WCI  15
HETTINGER ARPT CLOUDY    35  33  92 E17       29.70F
$$

NDZ004>008-012>016-024-026-027-054-240500-
NORTHEAST NORTH DAKOTA

CITY           SKY/WX    TMP DP  RH WIND       PRES   REMARKS
GRAND FORKS    LGT RAIN  33  30  88 NE16      29.96F
GRND FRKS AFB  CLOUDY    31  29  92 E14       29.96F
DEVILS LAKE    CLOUDY    29  27  92 E20G25    29.93F WCI  16
$$

NDZ022-023-025-028>030-036>039-047>053-240500-
SOUTHEAST NORTH DAKOTA

CITY           SKY/WX    TMP DP  RH WIND       PRES   REMARKS
FARGO          CLOUDY    37  32  82 E16       29.86F
JAMESTOWN      CLOUDY    32  30  92 E20       29.85F
$$





USA.gov is the U.S. government's official web portal to all federal, state and local government web resources and services.